Weather History for Middlesboro, KY

Change the Weather History Date:

Thursday, January 17, 2013

  Actual Average (KLOZ) Record (KLOZ)
Temperature  
Mean Temperature 34 °F 35 °F  
Max Temperature 41 °F 45 °F 69 °F (1974)
Min Temperature 26 °F 26 °F -15 °F (1982)
Degree Days  
Heating Degree Days 32 30  
Month to date heating degree days 506  
Since 1 July heating degree days 2158  
Cooling Degree Days 0 0  
Month to date cooling degree days 0  
Year to date cooling degree days 0  
Moisture  
Dew Point 33 °F    
Average Humidity 89    
Maximum Humidity 100    
Minimum Humidity 65    
Precipitation  
Precipitation 0.32 in 0.11 in 1.84 in (2006)
Month to date precipitation 1.94  
Year to date precipitation 1.94  
Sea Level Pressure  
Sea Level Pressure 30.11 in    
Wind  
Wind Speed 3 mph (NNE)    
Max Wind Speed 10 mph    
Max Gust Speed -    
Visibility 7 miles    
Events Fog , Rain , Snow    
T = Trace of Precipitation, MM = Missing Value Source: NWS Daily Summary

Daily Weather History Graph

Daily Weather History Graph

Search for Another Location

Airport:

Trip Planner

Search our weather history database for the weather conditions in past years. The results will help you decide how hot, cold, wet, or windy it might be!

Date:

Astronomy

Jan. 17, 2013 Rise Set
Actual Time 6:45 AM CST 4:45 PM CST
Civil Twilight 6:17 AM CST 5:13 PM CST
Nautical Twilight 5:45 AM CST 5:44 PM CST
Astronomical Twilight 5:14 AM CST 6:15 PM CST
Moon 10:03 AM CST (1/17) 11:22 PM CST (1/17)
Length of Visible Light 10h 55m
Length of Day
9h 59m
Waxing Crescent, 38% of the Moon is Illuminated
Jan 17
Waxing Crescent
Jan 18
First Quarter
Jan 26
Full
Feb 3
Last Quarter
Feb 10
New

Hourly Weather History & Observations

Time (CST) Temp. Windchill Dew Point Humidity Pressure Visibility Wind Dir Wind Speed Gust Speed Precip Events Conditions
12:15 AM 41.0 °F 39.0 °F 39.2 °F 93% 30.11 in 10.0 mi NE 3.5 mph - N/A   Light Drizzle
12:35 AM 41.0 °F 39.0 °F 39.2 °F 93% 30.09 in 10.0 mi East 3.5 mph - N/A Rain Light Rain
12:55 AM 41.0 °F 38.0 °F 39.2 °F 93% 30.11 in 10.0 mi ENE 4.6 mph - N/A   Overcast
1:15 AM 41.0 °F 35.8 °F 39.2 °F 93% 30.10 in 10.0 mi NE 8.1 mph - N/A   Light Drizzle
1:35 AM 39.2 °F 35.0 °F 39.2 °F 100% 30.10 in 10.0 mi ENE 5.8 mph - N/A Rain Light Rain
2:15 AM 39.2 °F 35.0 °F 39.2 °F 100% 30.08 in 10.0 mi NNE 5.8 mph - N/A Rain Light Rain
2:35 AM 39.2 °F 35.0 °F 37.4 °F 93% 30.08 in 10.0 mi NNE 5.8 mph - N/A   Mostly Cloudy
2:55 AM 39.2 °F - 35.6 °F 87% 30.08 in 10.0 mi Calm Calm - N/A   Overcast
3:35 AM 39.2 °F - 33.8 °F 81% 30.07 in 10.0 mi Calm Calm - N/A   Light Drizzle
3:55 AM 39.2 °F - 33.8 °F 81% 30.08 in 10.0 mi Calm Calm - N/A   Overcast
4:15 AM 39.2 °F 37.0 °F 33.8 °F 81% 30.08 in 10.0 mi North 3.5 mph - N/A   Overcast
4:35 AM 39.2 °F - 30.2 °F 70% 30.07 in 10.0 mi Calm Calm - N/A   Overcast
4:55 AM 39.2 °F 35.9 °F 30.2 °F 70% 30.07 in 10.0 mi NNW 4.6 mph - N/A   Overcast
5:15 AM 39.2 °F 37.0 °F 30.2 °F 70% 30.07 in 10.0 mi NNW 3.5 mph - N/A   Overcast
5:35 AM 39.2 °F - 28.4 °F 65% 30.07 in 10.0 mi Calm Calm - N/A   Overcast
6:15 AM 39.2 °F 37.0 °F 30.2 °F 70% 30.07 in 10.0 mi NNE 3.5 mph - N/A   Overcast
6:35 AM 39.2 °F 37.0 °F 30.2 °F 70% 30.07 in 10.0 mi NNE 3.5 mph - N/A   Overcast
6:55 AM 39.2 °F 37.0 °F 30.2 °F 70% 30.07 in 10.0 mi NNE 3.5 mph - N/A   Overcast
7:15 AM 39.2 °F - 30.2 °F 70% 30.07 in 10.0 mi Calm Calm - N/A Rain Light Rain
7:35 AM 39.2 °F - 33.8 °F 81% 30.07 in 10.0 mi Calm Calm - N/A Rain Rain
7:55 AM 37.4 °F - 33.8 °F 87% 30.08 in 7.0 mi Calm Calm - N/A Rain Rain
8:15 AM 37.4 °F - 33.8 °F 87% 30.06 in 5.0 mi Calm Calm - N/A Rain Rain
8:35 AM 37.4 °F - 33.8 °F 87% 30.09 in 10.0 mi Calm Calm - N/A Rain Light Rain
8:55 AM 37.4 °F 34.9 °F 33.8 °F 87% 30.08 in 10.0 mi North 3.5 mph - N/A Rain Light Rain
9:15 AM 37.4 °F 32.8 °F 33.8 °F 87% 30.08 in 4.0 mi North 5.8 mph - N/A Rain Rain
9:35 AM 37.4 °F 33.8 °F 35.6 °F 93% 30.07 in 4.0 mi North 4.6 mph - N/A Rain Rain
9:55 AM 37.4 °F 33.8 °F 35.6 °F 93% 30.04 in 2.5 mi ENE 4.6 mph - 0.02 in Rain Rain
10:15 AM 37.4 °F - 35.6 °F 93% 30.06 in 4.0 mi Calm Calm - 0.05 in Rain Rain
10:35 AM 37.4 °F - 35.6 °F 93% 30.04 in 5.0 mi Calm Calm - 0.05 in Rain Rain
10:55 AM 37.4 °F - 35.6 °F 93% 30.05 in 3.0 mi Calm Calm - 0.01 in Rain Rain
11:15 AM 37.4 °F 32.8 °F 35.6 °F 93% 30.02 in 4.0 mi NNE 5.8 mph - 0.03 in Rain Rain
11:35 AM 37.4 °F 33.8 °F 35.6 °F 93% 30.03 in 7.0 mi North 4.6 mph - 0.05 in Rain Rain
11:55 AM 37.4 °F 30.8 °F 35.6 °F 93% 30.01 in 5.0 mi North 9.2 mph - 0.01 in Rain Rain
12:15 PM 35.6 °F 28.0 °F 33.8 °F 93% 30.03 in 5.0 mi NNW 10.4 mph - 0.03 in   Overcast
12:35 PM 33.8 °F 28.6 °F 33.8 °F 100% 30.04 in 0.5 mi North 5.8 mph - 0.08 in Snow Snow
12:55 PM 33.8 °F 30.8 °F 33.8 °F 100% 30.02 in 0.2 mi North 3.5 mph - 0.02 in Snow Heavy Snow
1:15 PM 33.8 °F - 33.8 °F 100% 30.01 in 0.2 mi Calm Calm - 0.07 in Snow Snow
2:15 PM 33.8 °F - 33.8 °F 100% 30.03 in 0.5 mi Calm Calm - 0.04 in Snow Snow
2:35 PM 33.8 °F - 33.8 °F 100% 30.03 in 0.8 mi Calm Calm - 0.05 in Snow Light Snow
2:55 PM 35.6 °F - 33.8 °F 93% 30.03 in 10.0 mi Calm Calm - N/A Snow Light Snow
4:55 PM 35.6 °F 29.9 °F 35.6 °F 100% 30.11 in 10.0 mi NNE 6.9 mph - N/A   Overcast
5:35 PM 35.6 °F 31.7 °F 35.6 °F 100% 30.16 in 10.0 mi North 4.6 mph - N/A   Overcast
7:15 PM 35.6 °F 31.7 °F 33.8 °F 93% 30.24 in 10.0 mi NNW 4.6 mph - N/A   Overcast
7:55 PM 35.6 °F 31.7 °F 33.8 °F 93% 30.27 in 10.0 mi NNW 4.6 mph - N/A   Overcast
8:15 PM 35.6 °F - 33.8 °F 93% 30.28 in 10.0 mi Calm Calm - N/A   Overcast
8:55 PM 33.8 °F - 30.2 °F 87% 30.31 in 10.0 mi Calm Calm - N/A   Scattered Clouds
9:15 PM 30.2 °F - 30.2 °F 100% 30.31 in 10.0 mi Calm Calm - N/A   Clear
9:35 PM 30.2 °F - 28.4 °F 93% 30.32 in 2.0 mi Calm Calm - N/A   Clear
9:55 PM 28.4 °F - 28.4 °F 100% 30.33 in 0.2 mi Calm Calm - N/A Fog Light Freezing Fog
11:15 PM 26.6 °F - 26.6 °F 100% 30.35 in 0.2 mi Calm Calm - N/A Fog Light Freezing Fog
11:35 PM 26.6 °F - 26.6 °F 100% 30.36 in 0.5 mi Calm Calm - N/A Fog Light Freezing Fog
11:55 PM 26.6 °F - 24.8 °F 93% 30.37 in 0.5 mi Calm Calm - N/A Fog Light Freezing Fog